This demonstration page uses our WeatherBlox Daily Observations layout. Learn more.

Left ArrowRight Arrow

34.74481, -87.66753

Hourly Observations for March 27, 2021

Temp ( °F °C ) Dew Point ( °F °C ) Humidity (%) Winds ( mph kmh ) Pressure ( in mb ) Visibility ( mi km ) Precip ( " mm )
12:53 am 00:53 Cloudy 62 16.7 50 10 65 65 Calm 30.04 1017 10 16 0.00 0.00
1:53 am 01:53 Mostly Cloudy 62 16.7 51 10.6 67 67 SE 5 7 30.02 1017 10 16 0.00 0.00
2:53 am 02:53 Mostly Cloudy with Rain 63 17.2 52 11.1 68 68 ESE 6 9 30.01 1016 6 10 0.00 0.00
3:03 am 03:03 Cloudy with Light Rain 62 16.7 53 11.7 73 73 E 5 7 30.01 1016 7 11 0.00 0.00
3:08 am 03:08 Cloudy with Thunderstorms 62 16.7 53 11.7 73 73 E 6 9 30.01 1016 10 16 0.00 0.00
3:29 am 03:29 Cloudy with Nearby Thunderstorms 62 16.7 54 12.2 75 75 ESE 5 7 30.01 1016 10 16 0.00 0.00
3:37 am 03:37 Cloudy 61 16.1 54 12.2 78 78 SE 6 9 30.03 1017 10 16 0.00 0.00
3:53 am 03:53 Mostly Cloudy 63 17.2 55 12.8 76 76 E 3 6 30.00 1016 10 16 0.00 0.00
4:43 am 04:43 Mostly Cloudy 64 17.8 57 13.9 78 78 SSE 7 11 29.98 1015 10 16 0.00 0.00
4:53 am 04:53 Mostly Cloudy 64 17.8 57 13.9 78 78 SSE 6 9 29.97 1015 10 16 0.00 0.00
5:53 am 05:53 Cloudy 68 20 62 16.7 81 81 S 8 13 29.97 1015 10 16 0.00 0.00
6:00 am 06:00 Cloudy 69 20.6 62 16.7 78 78 S 9 15 29.98 1015 10 16 0.00 0.00
6:34 am 06:34 Cloudy 69 20.6 63 17.2 81 81 S 10 17 29.98 1015 10 16 0.00 0.00
6:53 am 06:53 Cloudy 69 20.6 63 17.2 81 81 S 10 17 29.98 1015 8 13 0.00 0.00
7:13 am 07:13 Cloudy 70 21.1 64 17.8 82 82 S 10 17 29.99 1015 9 14 0.00 0.00
7:53 am 07:53 Cloudy 71 21.7 63 17.2 76 76 S 9 15 30.01 1016 10 16 0.00 0.00
8:53 am 08:53 Cloudy 71 21.7 64 17.8 79 79 SW 6 9 30.04 1017 10 16 0.00 0.00
9:03 am 09:03 Cloudy with Light Rain 71 21.7 64 17.8 79 79 W 7 11 30.04 1017 9 14 0.00 0.00
9:53 am 09:53 Cloudy 74 23.3 65 18.3 74 74 SSW 12 19 30.03 1017 10 16 0.00 0.00
10:06 am 10:06 Cloudy 75 23.9 65 18.3 71 71 S 12 19 30.02 1017 10 16 0.00 0.00
10:19 am 10:19 Cloudy 76 24.4 65 18.3 69 69 SSW 14 22 30.01 1016 10 16 0.00 0.00
10:32 am 10:32 Cloudy 77 25 64 17.8 64 64 SSW 18 30 30.01 1016 10 16 0.00 0.00
10:53 am 10:53 Mostly Cloudy 78 25.6 65 18.3 64 64 SSW 17 28 30.01 1016 10 16 0.00 0.00
11:04 am 11:04 Mostly Cloudy 78 25.6 64 17.8 62 62 SW 21 33 30.01 1016 10 16 0.00 0.00
11:53 am 11:53 Partly Cloudy 81 27.2 64 17.8 57 57 SW 24 39 30.00 1016 10 16 0.00 0.00
12:53 pm 12:53 Cloudy 81 27.2 64 17.8 57 57 SW 17 28 29.98 1015 10 16 0.00 0.00
1:53 pm 13:53 Cloudy 80 26.7 62 16.7 54 54 SW 15 24 29.96 1015 10 16 0.00 0.00
2:53 pm 14:53 Cloudy 81 27.2 63 17.2 54 54 SSW 15 24 29.94 1014 10 16 0.00 0.00
3:53 pm 15:53 Mostly Cloudy 83 28.3 64 17.8 53 53 SSW 13 20 29.91 1013 10 16 0.00 0.00
4:53 pm 16:53 Mostly Cloudy 82 27.8 64 17.8 55 55 SSW 16 26 29.88 1012 10 16 0.00 0.00
5:53 pm 17:53 Sunny 81 27.2 65 18.3 58 58 S 7 11 29.88 1012 10 16 0.00 0.00
6:53 pm 18:53 Mostly Sunny 79 26.1 64 17.8 60 60 S 8 13 29.87 1011 10 16 0.00 0.00
7:53 pm 19:53 Partly Cloudy 77 25 64 17.8 64 64 S 5 7 29.87 1011 10 16 0.00 0.00
8:53 pm 20:53 Partly Cloudy 77 25 65 18.3 66 66 S 13 20 29.85 1011 10 16 0.00 0.00
9:53 pm 21:53 Mostly Clear 76 24.4 65 18.3 69 69 S 20 31 29.85 1011 10 16 0.00 0.00
10:53 pm 22:53 Clear 76 24.4 65 18.3 69 69 S 21 33 29.82 1010 10 16 0.00 0.00
11:53 pm 23:53 Mostly Clear 76 24.4 65 18.3 69 69 SSW 20 31 29.83 1010 10 16 0.00 0.00

Powered by AerisWeather